[[{"header":{"parameterUnit":"m.s-1","parameterCategory":1,"la1":30.2991,"la2":30.254,"lo1":-89.0895,"lo2":-89.0444,"dy":0.0017,"dx":0.0017,"nx":28,"ny":28,"refTime":"2025-04-04T03:00:00:Z","depth":0,"parameterNumber":2,"parameterNumberName":"U-component_of_WINDS"},"data":[0,0,0,0,0,0,0,0,0,0,0,0,0,0,0,0,0,0,0,0,0,0,0,0,0,0,0,0,0,0,0,0,0,0,0,0,0,0,0,0,0,0,0,0,0,0,0,0,0,0,0,0,0,0,0,0,0,0,-5.0573,-5.0573,0,-5.0629,-5.063,-5.063,-5.0597,-5.0595,-5.0594,-5.0592,-5.0649,-5.0652,-5.0655,0,0,0,0,0,0,0,0,0,0,0,0,0,-5.0436,-5.0439,-5.0573,-5.0573,-5.0574,-5.0629,-5.063,-5.063,-5.0597,-5.0595,-5.0593,-5.0591,-5.0648,-5.0652,-5.0655,0,0,0,0,0,0,0,0,0,0,0,0,0,-5.0494,-5.044,-5.0573,-5.0564,-5.0564,-5.0629,-5.063,-5.0631,-5.0597,-5.0595,-5.0593,-5.059,-5.0647,-5.0651,-5.0656,-5.0732,0,0,-5.067,-5.0672,0,0,0,0,0,0,0,0,-5.0491,-5.0499,-5.0565,-5.0565,-5.0565,-5.0603,-5.0602,-5.0665,-5.0598,-5.0585,-5.0592,-5.0589,-5.0636,-5.0641,-5.0657,-5.0735,-5.0737,-5.067,-5.0673,-5.0675,-5.0676,0,0,0,0,0,0,0,-5.0487,-5.0497,-5.0595,-5.0566,-5.0566,-5.0557,-5.0563,-5.0614,-5.0623,-5.0586,-5.0583,-5.0591,-5.0635,-5.0653,-5.0658,-5.0738,-5.067,-5.0674,-5.0677,-5.0679,-5.0881,-5.0883,0,0,0,0,0,0,-5.0484,-5.0494,-5.0593,-5.0597,-5.0521,-5.0562,-5.0568,-5.0593,-5.0622,-5.0625,-5.0593,-5.0589,-5.0646,-5.0653,-5.066,-5.075,-5.0675,-5.0679,-5.0682,-5.0878,-5.0881,-5.0884,0,0,0,0,0,0,-5.0481,-5.0493,-5.0591,-5.0545,-5.0556,-5.0567,-5.0595,-5.0596,-5.0613,-5.0628,-5.0629,-5.0608,-5.0644,-5.0654,-5.0714,-5.0751,-5.0681,-5.0685,-5.0875,-5.0879,-5.0883,-5.0931,0,0,0,0,0,0,-5.0477,-5.0492,-5.0521,-5.0545,-5.0559,-5.0644,-5.0598,-5.0599,-5.0621,-5.0617,-5.0643,-5.0645,-5.0643,-5.0708,-5.0719,-5.0756,-5.0689,-5.0872,-5.0877,-5.0881,-5.0926,-5.0936,-5.0944,0,0,0,0,0,-5.0472,-5.0532,-5.0523,-5.0535,-5.0595,-5.0646,-5.0654,-5.0651,-5.0624,-5.0653,-5.0663,-5.0644,-5.0746,-5.0714,-5.0726,-5.0766,-5.0869,-5.0875,-5.0881,-5.0922,-5.0934,-5.0944,0,0,0,0,0,0,-5.0511,-5.0535,-5.0525,-5.0595,-5.0619,-5.0641,-5.0677,-5.0664,-5.0696,-5.0691,-5.0686,-5.0692,-5.0755,-5.0767,-5.0731,-5.0841,-5.0803,-5.0812,-5.083,-5.0842,-5.0851,-5.0845,-5.0692,0,0,0,0,0,-5.0528,-5.0568,-5.0587,-5.0647,-5.0659,-5.0666,-5.0689,-5.0684,-5.0709,-5.0719,-5.0733,-5.0758,-5.0795,-5.082,-5.0855,-5.0929,-5.0933,-5.0962,-5.0971,-5.0979,-5.0985,-5.1024,-5.1036,-5.0904,-5.0904,-5.0904,0,0,-5.0563,-5.0581,-5.0606,-5.0655,-5.0673,-5.0714,-5.0675,-5.072,-5.075,-5.0726,-5.0783,-5.0795,-5.0822,-5.0889,-5.0919,-5.0901,-5.1024,-5.0986,-5.0992,-5.0995,-5.1031,-5.1044,-5.1055,-5.0908,-5.0907,-5.0906,0,0,-5.0647,-5.0665,-5.0716,-5.0736,-5.0764,-5.0769,-5.0781,-5.0806,-5.0812,-5.087,-5.0853,-5.0889,-5.0954,-5.0973,-5.0992,-5.1085,-5.1069,-5.1097,-5.1145,-5.1182,-5.1193,-5.1202,-5.1233,-5.1245,-5.1105,-5.1105,-5.1105,0,-5.0686,-5.0747,-5.0744,-5.079,-5.0812,-5.0793,-5.0844,-5.0863,-5.0902,-5.0917,-5.0896,-5.0977,-5.0995,-5.1065,-5.1088,-5.1105,-5.1118,-5.1092,-5.1192,-5.1201,-5.1209,-5.1239,-5.1251,-5.1108,-5.1107,-5.1107,-5.1107,0,-5.0793,-5.0836,-5.0874,-5.0911,-5.0937,-5.0986,-5.099,-5.1017,-5.1012,-5.1019,-5.1078,-5.1098,-5.1137,-5.1154,-5.1149,-5.1225,-5.1212,-5.1192,-5.1153,-5.1225,-5.1252,-5.1264,-5.1112,-5.1111,-5.111,-5.1109,0,0,-5.09,-5.0937,-5.095,-5.0967,-5.0997,-5.103,-5.1078,-5.1116,-5.1139,-5.1167,-5.1206,-5.1263,-5.1244,-5.1265,-5.1263,-5.1296,-5.1367,-5.1272,-5.1272,-5.1287,-5.1449,-5.1462,-5.1475,-5.1358,-5.136,-5.1362,-5.1446,0,-5.0983,-5.1067,-5.1066,-5.1143,-5.1182,-5.1166,-5.1207,-5.1231,-5.1239,-5.1273,-5.1283,-5.1321,-5.1295,-5.1308,-5.1341,-5.1351,-5.1399,-5.1346,-5.1392,-5.1394,-5.1383,-5.149,-5.1503,-5.1582,-5.1457,-5.1459,-5.146,0,-5.1091,-5.1123,-5.1203,-5.1228,-5.1244,-5.1282,-5.1316,-5.135,-5.1376,-5.138,-5.1404,-5.1397,-5.1446,-5.1409,-5.1475,-5.1439,-5.1459,-5.1467,-5.147,-5.1472,-5.1429,-5.1492,-5.1607,-5.1618,-5.1478,-5.1476,-5.1475,0,-5.1158,-5.1221,-5.1277,-5.1292,-5.1323,-5.1349,-5.1364,-5.1388,-5.1411,-5.1442,-5.1457,-5.1493,-5.1513,-5.1541,-5.1544,-5.1517,-5.161,-5.1574,-5.1614,-5.1613,-5.1631,-5.1629,-5.1748,-5.1649,-5.1649,-5.1649,-5.1649,0,-5.125,-5.1299,-5.1307,-5.1341,-5.1396,-5.1396,-5.145,-5.1462,-5.1484,-5.152,-5.151,-5.1544,-5.1547,-5.1582,-5.1585,-5.1638,-5.1648,-5.1652,-5.1651,-5.1651,-5.165,-5.1661,-5.1655,-5.1652,-5.1651,-5.1651,-5.165,0,-5.1332,-5.134,-5.1399,-5.1424,-5.1432,-5.1471,-5.1492,-5.1525,-5.1533,-5.1579,-5.1589,-5.1602,-5.1643,-5.1649,-5.1698,-5.1699,-5.1763,-5.1759,-5.1754,-5.1752,-5.179,-5.1786,-5.1918,-5.1935,-5.1828,-5.1829,-5.1829,0,-5.1388,-5.1426,-5.1455,-5.1478,-5.1494,-5.1532,-5.1555,-5.1558,-5.1583,-5.1616,-5.1644,-5.1684,-5.1716,-5.1782,-5.1795,-5.1832,-5.1827,-5.1871,-5.1832,-5.183,-5.1824,-5.1821,-5.1824,-5.1877,-5.1878,-5.1879,-5.188,0,-5.1487,-5.1489,-5.1523,-5.1559,-5.1587,-5.1616,-5.1642,-5.1662,-5.1668,-5.1697,-5.1738,-5.1763,-5.1812,-5.1851,-5.1888,-5.1903,-5.1892,-5.1893,-5.1903,-5.1902,-5.1896,-5.1897,-5.1771,-5.1889,-5.1888,-5.1887,-5.1887,-5.1886,-5.1556,-5.1588,-5.1614,-5.1652,-5.1673,-5.1698,-5.1729,-5.1742,-5.1777,-5.1816,-5.1816,-5.1862,-5.1888,-5.1936,-5.1953,-5.1989,-5.1974,-5.199,-5.1994,-5.1997,-5.1999,-5.1894,-5.1996,-5.1996,-5.1995,-5.1995,-5.1995,0,-5.1652,-5.1668,-5.1703,-5.1741,-5.1771,-5.176,-5.1789,-5.1815,-5.1855,-5.188,-5.1912,-5.1959,-5.1998,-5.2015,-5.2053,-5.2078,-5.2074,-5.2087,-5.2084,-5.2087,-5.2011,-5.1997,-5.209,-5.209,-5.209,-5.209,-5.209,-5.209,-5.1705,-5.1758,-5.1763,-5.1827,-5.1842,-5.1886,-5.1904,-5.1927,-5.1947,-5.2001,-5.2033,-5.2044,-5.2066,-5.2105,-5.214,-5.2144,-5.2157,-5.2173,-5.2174,-5.2102,-5.2093,-5.2083,-5.207,-5.2176,-5.2176,-5.2247,-5.2247,-5.2248]},{"header":{"parameterUnit":"m.s-1","parameterCategory":1,"la1":30.2991,"la2":30.254,"lo1":-89.0895,"lo2":-89.0444,"dy":0.0017,"dx":0.0017,"nx":28,"ny":28,"refTime":"2025-04-04T03:00:00:Z","depth":0,"parameterNumber":3,"parameterNumberName":"V-component_of_WINDS"},"data":[0,0,0,0,0,0,0,0,0,0,0,0,0,0,0,0,0,0,0,0,0,0,0,0,0,0,0,0,0,0,0,0,0,0,0,0,0,0,0,0,0,0,0,0,0,0,0,0,0,0,0,0,0,0,0,0,0,0,3.2739,3.274,0,3.2815,3.2816,3.2817,3.2843,3.2843,3.2842,3.2842,3.2918,3.292,3.2922,0,0,0,0,0,0,0,0,0,0,0,0,0,3.2618,3.262,3.2739,3.274,3.2741,3.2815,3.2816,3.2817,3.2843,3.2843,3.2842,3.2842,3.2917,3.2919,3.2922,0,0,0,0,0,0,0,0,0,0,0,0,0,3.2679,3.262,3.2739,3.2763,3.2766,3.2815,3.2816,3.2817,3.2843,3.2843,3.2842,3.2842,3.2916,3.2919,3.2923,3.2952,0,0,3.2933,3.2934,0,0,0,0,0,0,0,0,3.2676,3.2684,3.2759,3.2761,3.2765,3.2819,3.2801,3.2862,3.2843,3.2814,3.2842,3.2842,3.2885,3.2891,3.2906,3.2956,3.2959,3.2933,3.2935,3.2937,3.2938,0,0,0,0,0,0,0,3.2672,3.2681,3.2769,3.276,3.2763,3.277,3.2778,3.2812,3.2851,3.2816,3.2818,3.2827,3.2887,3.2903,3.2908,3.296,3.2933,3.2936,3.2938,3.294,3.3041,3.3041,0,0,0,0,0,0,3.2663,3.2677,3.2767,3.2771,3.2718,3.2773,3.2782,3.2802,3.285,3.2857,3.2827,3.2828,3.2897,3.2904,3.2911,3.295,3.2937,3.294,3.2942,3.304,3.3041,3.3042,0,0,0,0,0,0,3.2661,3.2671,3.2764,3.2725,3.2737,3.2775,3.2798,3.2804,3.282,3.2859,3.2866,3.2837,3.2897,3.2906,3.2942,3.2953,3.2942,3.2945,3.3039,3.304,3.3041,3.3029,0,0,0,0,0,0,3.2657,3.267,3.2681,3.2725,3.2739,3.2794,3.2798,3.2806,3.2826,3.2827,3.2869,3.2876,3.2897,3.2937,3.2946,3.2958,3.2947,3.3039,3.304,3.3041,3.3028,3.3029,3.303,0,0,0,0,0,3.2653,3.2674,3.2682,3.2692,3.2754,3.2794,3.2803,3.2827,3.2827,3.2839,3.2864,3.2875,3.2951,3.2941,3.2951,3.2964,3.3038,3.3039,3.3041,3.3028,3.3029,3.303,0,0,0,0,0,0,3.2629,3.268,3.2689,3.2725,3.2755,3.2799,3.2814,3.2827,3.2858,3.2858,3.2887,3.2896,3.2931,3.2951,3.2939,3.2996,3.2995,3.2998,3.2982,3.2983,3.2984,3.2978,3.295,0,0,0,0,0,3.2628,3.2657,3.2699,3.2727,3.2742,3.2776,3.2794,3.2811,3.2843,3.2856,3.2884,3.2915,3.2946,3.2965,3.2996,3.3032,3.3042,3.3046,3.3046,3.3047,3.3049,3.3072,3.3075,3.3046,3.3046,3.3046,0,0,3.2626,3.2657,3.2673,3.2723,3.2749,3.2778,3.2786,3.2816,3.2839,3.286,3.2897,3.2919,3.2955,3.2992,3.301,3.301,3.306,3.3049,3.3049,3.3051,3.3074,3.3076,3.3079,3.3047,3.3047,3.3047,0,0,3.2638,3.2664,3.2691,3.2717,3.2756,3.2779,3.2786,3.2828,3.2844,3.2882,3.2899,3.2926,3.2979,3.3005,3.3025,3.305,3.3061,3.3059,3.3062,3.3084,3.3086,3.3089,3.3099,3.3102,3.3061,3.3061,3.3061,0,3.263,3.2676,3.2703,3.2733,3.2755,3.2778,3.2806,3.283,3.2877,3.2891,3.2891,3.296,3.2986,3.303,3.3036,3.3051,3.3061,3.3054,3.3084,3.3086,3.3089,3.3099,3.3103,3.3061,3.3061,3.3061,3.3061,0,3.2665,3.2697,3.2714,3.276,3.2784,3.2813,3.2846,3.2867,3.2882,3.2905,3.2944,3.2977,3.3015,3.3027,3.3041,3.3074,3.3074,3.3078,3.3078,3.3091,3.3101,3.3105,3.306,3.306,3.306,3.3061,0,0,3.2662,3.2726,3.2732,3.2754,3.2801,3.2826,3.2856,3.2896,3.2914,3.2946,3.2973,3.3019,3.3024,3.3047,3.3065,3.3084,3.3104,3.3087,3.3088,3.309,3.3144,3.3141,3.3145,3.3112,3.3113,3.3114,3.3142,0,3.2681,3.2737,3.2764,3.2809,3.284,3.2863,3.289,3.2922,3.2945,3.2974,3.2999,3.3032,3.3036,3.305,3.307,3.3097,3.3115,3.3096,3.3138,3.3139,3.3129,3.315,3.3146,3.3171,3.3146,3.3146,3.3147,0,3.2709,3.2744,3.2792,3.2838,3.2851,3.2875,3.2915,3.2942,3.2979,3.2995,3.3022,3.304,3.3074,3.3072,3.312,3.3106,3.3125,3.3141,3.3143,3.3148,3.3144,3.3157,3.3179,3.3183,3.3153,3.3153,3.3152,0,3.2704,3.2762,3.2799,3.2818,3.2871,3.2888,3.2911,3.2948,3.2971,3.3005,3.3021,3.3058,3.3079,3.3107,3.3136,3.3131,3.3182,3.3181,3.3196,3.3196,3.3206,3.3205,3.3232,3.3217,3.3217,3.3217,3.3217,0,3.2722,3.2751,3.2798,3.2821,3.2855,3.2886,3.2919,3.2943,3.2977,3.3005,3.3027,3.3053,3.3089,3.312,3.3142,3.3179,3.3188,3.3202,3.3208,3.3201,3.3199,3.3214,3.3213,3.3218,3.3218,3.3217,3.3217,0,3.2722,3.2754,3.2797,3.2845,3.2858,3.2881,3.2922,3.2946,3.2971,3.3007,3.3017,3.3056,3.3094,3.3126,3.3174,3.319,3.3229,3.3235,3.3217,3.322,3.3235,3.3233,3.3273,3.3281,3.3259,3.3259,3.3259,0,3.2731,3.2755,3.2806,3.2828,3.2851,3.2885,3.2909,3.2941,3.2965,3.3011,3.303,3.307,3.3103,3.3163,3.3196,3.3234,3.3242,3.3253,3.3247,3.324,3.3243,3.3242,3.3245,3.3254,3.3254,3.3254,3.3254,0,3.2745,3.2761,3.2795,3.2836,3.2865,3.2898,3.2932,3.2948,3.2987,3.3013,3.3053,3.3079,3.3131,3.3171,3.3214,3.3237,3.3253,3.3256,3.3262,3.3254,3.3244,3.3251,3.322,3.3254,3.3254,3.3254,3.3254,3.3254,3.2751,3.2774,3.2815,3.2853,3.2882,3.2914,3.2939,3.2969,3.3003,3.3049,3.3066,3.3107,3.3146,3.3205,3.323,3.3263,3.3264,3.3272,3.3274,3.3276,3.3276,3.3238,3.327,3.327,3.327,3.327,3.327,0,3.2767,3.2796,3.283,3.2878,3.2909,3.2922,3.2961,3.2985,3.3022,3.3058,3.3091,3.3138,3.3178,3.3215,3.3257,3.3276,3.3284,3.3286,3.3285,3.3291,3.3271,3.3263,3.3279,3.3279,3.3279,3.3279,3.3279,3.3279,3.2779,3.2819,3.284,3.2896,3.2924,3.2966,3.2987,3.3017,3.3046,3.3098,3.3132,3.3156,3.3193,3.3238,3.3275,3.3285,3.33,3.33,3.3312,3.3293,3.3292,3.3291,3.3283,3.3303,3.3303,3.3329,3.3329,3.3329]}]]